Location: Newark
(45.5000°N, 11.4167°E)
Time: 15:52:19
(UTC+00:00)

A-11 Canister half - Pass Details

Date: 25 August 2019
Orbit: 1514 x 1686 km, 47.2° (Epoch: 18 October)

Event Time Altitude Azimuth Distance (km) Brightness Sun altitude
Rises 23:08:10 0° 293° (WNW) 4,802 11.9 -33.9°
Reaches altitude 10° 23:11:30 10° 286° (WNW) 3,839 11.2 -33.9°
Enters shadow 23:17:33 33° 253° (WSW) 2,518 9.9 -33.9°
Maximum altitude 23:20:12 38° 223° (SW) 2,346 - -33.9°
Drops below altitude 10° 23:29:08 10° 160° (SSE) 3,926 - -33.8°
Sets 23:32:37 0° 153° (SSE) 4,922 - -33.8°
